This is the latest recevied weather packets stored in our database for station/object N8WJW. If no packets are shown the sender has not sent any weather packets the latest 10 day(s).
| Time | Temp. | Humidity | Pressure | Rain* | Wind** | Luminosity | Snow |
|---|---|---|---|---|---|---|---|
| 1777902915 | 15° C | 59% | 1009.5 hPa | 0 mm | - | 89 W/m² | - |
| 1777902613 | 14.44° C | 59% | 1009.6 hPa | 0 mm | - | 118 W/m² | - |
| 1777902310 | 14.44° C | 61% | 1009.7 hPa | 0 mm | - | 63 W/m² | - |
| 1777902007 | 13.89° C | 61% | 1009.4 hPa | 0 mm | - | 106 W/m² | - |
| 1777901705 | 13.89° C | 60% | 1009.5 hPa | 0 mm | - | 51 W/m² | - |
| 1777901402 | 13.89° C | 61% | 1009.6 hPa | 0 mm | - | 56 W/m² | - |
| 1777901100 | 13.33° C | 61% | 1009.7 hPa | 0 mm | - | 49 W/m² | - |
| 1777900797 | 13.33° C | 63% | 1009.8 hPa | 0 mm | - | 59 W/m² | - |
| 1777900494 | 12.78° C | 63% | 1009.6 hPa | 0 mm | - | 75 W/m² | - |
| 1777900191 | 12.78° C | 63% | 1009.9 hPa | 0 mm | - | 57 W/m² | - |
| 1777899887 | 13.33° C | 62% | 1009.7 hPa | 0 mm | - | 46 W/m² | - |
| 1777899584 | 12.78° C | 64% | 1009.9 hPa | 0 mm | - | 52 W/m² | - |
| 1777899282 | 12.78° C | 65% | 1009.7 hPa | 0 mm | - | 46 W/m² | - |
| 1777898979 | 12.22° C | 63% | 1010 hPa | 0 mm | - | 45 W/m² | - |
| 1777898676 | 12.22° C | 65% | 1009.9 hPa | 0 mm | - | 44 W/m² | - |
| 1777898373 | 11.67° C | 64% | 1009.8 hPa | 0 mm | - | 44 W/m² | - |
| 1777898071 | 11.67° C | 64% | 1009.8 hPa | 0 mm | - | 47 W/m² | - |
| 1777897767 | 11.67° C | 64% | 1009.8 hPa | 0 mm | - | 41 W/m² | - |
| 1777897463 | 11.67° C | 65% | 1009.9 hPa | 0 mm | - | 40 W/m² | - |
| 1777897159 | 11.67° C | 65% | 1009.8 hPa | 0 mm | - | 42 W/m² | - |
| 1777896855 | 11.67° C | 65% | 1010 hPa | 0 mm | - | 40 W/m² | - |
| 1777896553 | 11.11° C | 65% | 1009.9 hPa | 0 mm | - | 40 W/m² | - |
| 1777896250 | 11.11° C | 67% | 1009.6 hPa | 0 mm | - | 49 W/m² | - |
| 1777895948 | 11.11° C | 66% | 1009.7 hPa | 0 mm | - | 38 W/m² | - |
| 1777895645 | 10.56° C | 67% | 1009.5 hPa | 0 mm | - | 39 W/m² | - |
* Rain latest hour (hover to see other rain measurements)
** Current wind speed in m/s (hover to see current wind gust speed)